Time,TemperatureF,DewpointF,PressureIn,WindDirection,WindDirectionDegrees,WindSpeedMPH,WindSpeedGustMPH,Humidity,HourlyPrecipIn,Conditions,Clouds,dailyrainin,SoftwareType,DateUTC
2013-05-19 00:00:00,65.1,64.2,30.11,NW,313,0.0,0.0,97,0.05,RA,,0.34,WeatherDisplay:10.37,2013-05-19 04:00:00,
2013-05-19 00:01:00,65.1,64.2,30.11,NW,314,0.0,0.0,97,0.05,RA,,0.00,WeatherDisplay:10.37,2013-05-19 04:01:00,
2013-05-19 00:06:00,65.1,64.2,30.10,NW,314,0.0,0.0,97,0.05,RA,,0.00,WeatherDisplay:10.37,2013-05-19 04:06:00,
2013-05-19 00:11:00,65.1,64.2,30.11,NW,314,0.0,0.0,97,0.04,CLR,,0.00,WeatherDisplay:10.37,2013-05-19 04:11:00,
2013-05-19 00:16:00,65.1,64.2,30.11,NW,314,0.0,0.0,97,0.05,RA,,0.01,WeatherDisplay:10.37,2013-05-19 04:16:00,
2013-05-19 00:21:00,65.2,64.3,30.11,NW,314,0.0,0.0,97,0.05,RA,,0.01,WeatherDisplay:10.37,2013-05-19 04:21:00,
2013-05-19 00:26:00,65.1,64.2,30.11,NW,314,0.0,0.0,97,0.05,CLR,,0.01,WeatherDisplay:10.37,2013-05-19 04:26:00,
2013-05-19 00:31:00,65.1,64.2,30.11,NW,314,0.0,0.0,97,0.04,CLR,,0.01,WeatherDisplay:10.37,2013-05-19 04:31:00,
2013-05-19 00:36:00,65.1,64.2,30.11,NW,314,0.0,0.0,97,0.04,CLR,,0.01,WeatherDisplay:10.37,2013-05-19 04:36:00,
2013-05-19 00:41:00,65.1,64.2,30.11,NW,313,0.0,0.0,97,0.03,CLR,,0.01,WeatherDisplay:10.37,2013-05-19 04:41:00,
2013-05-19 00:46:00,65.1,64.2,30.11,NW,314,0.0,0.0,97,0.03,CLR,,0.01,WeatherDisplay:10.37,2013-05-19 04:46:00,
2013-05-19 00:51:00,65.1,64.2,30.11,NW,314,0.0,0.0,97,0.02,CLR,,0.01,WeatherDisplay:10.37,2013-05-19 04:51:00,
2013-05-19 00:56:00,65.1,64.2,30.11,NW,314,0.0,0.0,97,0.02,CLR,,0.01,WeatherDisplay:10.37,2013-05-19 04:56:00,
2013-05-19 01:01:00,65.1,64.2,30.10,NW,314,0.0,0.0,97,0.01,CLR,,0.01,WeatherDisplay:10.37,2013-05-19 05:01:00,
2013-05-19 01:06:00,65.1,64.2,30.11,NW,314,0.0,0.0,97,0.01,CLR,,0.01,WeatherDisplay:10.37,2013-05-19 05:06:00,
2013-05-19 01:11:00,65.1,64.2,30.11,NW,313,0.0,0.0,97,0.01,CLR,,0.01,WeatherDisplay:10.37,2013-05-19 05:11:00,
2013-05-19 01:16:00,65.1,64.2,30.10,NW,314,0.0,0.0,97,0.00,CLR,,0.01,WeatherDisplay:10.37,2013-05-19 05:16:00,
2013-05-19 01:21:00,65.1,64.2,30.10,NW,313,0.0,0.0,97,0.00,CLR,,0.01,WeatherDisplay:10.37,2013-05-19 05:21:00,
2013-05-19 01:26:00,65.1,64.2,30.10,NW,313,0.0,0.0,97,0.00,CLR,,0.01,WeatherDisplay:10.37,2013-05-19 05:26:00,
2013-05-19 01:31:00,65.1,64.2,30.10,NW,313,0.0,0.0,97,0.00,CLR,,0.01,WeatherDisplay:10.37,2013-05-19 05:31:00,
2013-05-19 01:36:00,65.1,64.2,30.10,NW,314,0.0,0.0,97,0.00,CLR,,0.01,WeatherDisplay:10.37,2013-05-19 05:36:00,
2013-05-19 01:41:00,65.1,64.2,30.10,NW,314,0.0,0.0,97,0.00,CLR,,0.01,WeatherDisplay:10.37,2013-05-19 05:41:00,
2013-05-19 01:46:00,65.1,64.2,30.10,NW,314,0.0,0.0,97,0.00,CLR,,0.01,WeatherDisplay:10.37,2013-05-19 05:46:00,
2013-05-19 01:51:00,65.2,64.3,30.10,NW,314,0.0,0.0,97,0.00,CLR,,0.01,WeatherDisplay:10.37,2013-05-19 05:51:00,
2013-05-19 01:56:00,65.2,64.3,30.10,NW,314,0.0,0.0,97,0.00,CLR,,0.01,WeatherDisplay:10.37,2013-05-19 05:56:00,
2013-05-19 02:01:00,65.2,64.3,30.10,NW,314,0.0,0.0,97,0.00,CLR,,0.01,WeatherDisplay:10.37,2013-05-19 06:01:00,
2013-05-19 02:06:00,65.2,64.3,30.10,NW,314,0.0,0.0,97,0.00,CLR,,0.01,WeatherDisplay:10.37,2013-05-19 06:06:00,
2013-05-19 02:11:00,65.1,64.2,30.10,NW,314,0.0,0.0,97,0.00,CLR,,0.01,WeatherDisplay:10.37,2013-05-19 06:11:00,
2013-05-19 02:16:00,65.0,64.1,30.10,NW,314,0.0,0.0,97,0.00,CLR,,0.01,WeatherDisplay:10.37,2013-05-19 06:16:00,
2013-05-19 02:21:00,65.0,64.1,30.10,NW,314,0.0,0.0,97,0.00,CLR,,0.01,WeatherDisplay:10.37,2013-05-19 06:21:00,
2013-05-19 02:26:00,65.0,64.1,30.09,NW,311,0.0,0.0,97,0.00,CLR,,0.01,WeatherDisplay:10.37,2013-05-19 06:26:00,
2013-05-19 02:31:00,65.0,64.1,30.09,NW,312,0.0,0.0,97,0.00,CLR,,0.01,WeatherDisplay:10.37,2013-05-19 06:31:00,
2013-05-19 02:36:00,65.0,64.1,30.09,NW,312,0.0,0.0,97,0.00,CLR,,0.01,WeatherDisplay:10.37,2013-05-19 06:36:00,
2013-05-19 02:41:00,65.0,64.1,30.09,NW,311,0.0,0.0,97,0.00,CLR,,0.01,WeatherDisplay:10.37,2013-05-19 06:41:00,
2013-05-19 02:46:00,65.0,64.1,30.09,NW,312,0.0,0.0,97,0.00,CLR,,0.01,WeatherDisplay:10.37,2013-05-19 06:46:00,
2013-05-19 02:51:00,65.0,64.1,30.09,SSE,158,0.0,0.0,97,0.00,CLR,,0.01,WeatherDisplay:10.37,2013-05-19 06:51:00,
2013-05-19 02:56:00,65.0,64.1,30.09,SSE,156,0.0,0.0,97,0.00,CLR,,0.01,WeatherDisplay:10.37,2013-05-19 06:56:00,
2013-05-19 03:01:00,65.0,64.1,30.09,WNW,286,0.0,0.0,97,0.00,CLR,,0.01,WeatherDisplay:10.37,2013-05-19 07:01:00,
2013-05-19 03:06:00,65.0,64.1,30.09,WNW,286,0.0,0.0,97,0.00,CLR,,0.01,WeatherDisplay:10.37,2013-05-19 07:06:00,
2013-05-19 03:11:00,65.0,64.1,30.08,WNW,286,0.0,0.0,97,0.00,CLR,,0.01,WeatherDisplay:10.37,2013-05-19 07:11:00,
2013-05-19 03:16:00,65.0,64.1,30.08,WNW,287,0.0,0.0,97,0.00,CLR,,0.01,WeatherDisplay:10.37,2013-05-19 07:16:00,
2013-05-19 03:21:00,65.1,64.2,30.08,ESE,117,0.0,0.0,97,0.00,CLR,,0.01,WeatherDisplay:10.37,2013-05-19 07:21:00,
2013-05-19 03:26:00,65.1,64.2,30.08,ESE,119,0.0,0.0,97,0.00,CLR,,0.01,WeatherDisplay:10.37,2013-05-19 07:26:00,
2013-05-19 03:31:00,65.1,64.2,30.08,SSW,200,0.0,0.0,97,0.00,CLR,,0.01,WeatherDisplay:10.37,2013-05-19 07:31:00,
2013-05-19 03:36:00,65.1,64.5,30.09,SSW,199,0.0,0.0,98,0.00,CLR,,0.01,WeatherDisplay:10.37,2013-05-19 07:36:00,
2013-05-19 03:41:00,65.2,64.6,30.08,South,184,0.0,0.0,98,0.00,CLR,,0.01,WeatherDisplay:10.37,2013-05-19 07:41:00,
2013-05-19 03:46:00,65.2,64.6,30.09,South,184,0.0,0.0,98,0.00,CLR,,0.01,WeatherDisplay:10.37,2013-05-19 07:46:00,
2013-05-19 03:51:00,65.3,64.7,30.09,South,183,0.0,0.0,98,0.00,CLR,,0.01,WeatherDisplay:10.37,2013-05-19 07:51:00,
2013-05-19 03:56:00,65.4,64.8,30.09,East,101,0.0,0.0,98,0.00,CLR,,0.01,WeatherDisplay:10.37,2013-05-19 07:56:00,
2013-05-19 04:01:00,65.5,64.9,30.09,ESE,106,0.0,0.0,98,0.00,CLR,,0.01,WeatherDisplay:10.37,2013-05-19 08:01:00,
2013-05-19 04:06:00,65.6,65.0,30.09,ESE,106,0.0,0.0,98,0.00,CLR,,0.01,WeatherDisplay:10.37,2013-05-19 08:06:00,
2013-05-19 04:11:00,65.6,65.0,30.09,East,85,0.0,0.0,98,0.00,CLR,,0.01,WeatherDisplay:10.37,2013-05-19 08:11:00,
2013-05-19 04:16:00,65.6,65.0,30.09,SE,136,0.0,0.0,98,0.00,CLR,,0.01,WeatherDisplay:10.37,2013-05-19 08:16:00,
2013-05-19 04:21:00,65.7,65.1,30.09,East,87,0.0,0.0,98,0.00,CLR,,0.01,WeatherDisplay:10.37,2013-05-19 08:21:00,
2013-05-19 04:26:00,65.8,65.2,30.09,East,89,0.0,0.0,98,0.00,CLR,,0.01,WeatherDisplay:10.37,2013-05-19 08:26:00,
2013-05-19 04:31:00,65.8,65.2,30.09,East,89,0.0,0.0,98,0.00,CLR,,0.01,WeatherDisplay:10.37,2013-05-19 08:31:00,
2013-05-19 04:36:00,65.8,65.2,30.09,SE,134,0.0,0.0,98,0.00,CLR,,0.01,WeatherDisplay:10.37,2013-05-19 08:36:00,
2013-05-19 04:41:00,65.9,65.3,30.09,SE,133,0.0,0.0,98,0.00,CLR,,0.01,WeatherDisplay:10.37,2013-05-19 08:41:00,
2013-05-19 04:46:00,65.9,65.3,30.09,SE,134,1.1,1.1,98,0.00,CLR,,0.01,WeatherDisplay:10.37,2013-05-19 08:46:00,
2013-05-19 04:51:00,66.0,65.4,30.09,SE,133,0.0,0.0,98,0.00,CLR,,0.01,WeatherDisplay:10.37,2013-05-19 08:51:00,
2013-05-19 04:56:00,66.0,65.4,30.09,East,89,3.5,3.5,98,0.00,CLR,,0.01,WeatherDisplay:10.37,2013-05-19 08:56:00,
2013-05-19 05:01:00,66.0,65.4,30.09,East,94,0.0,0.0,98,0.00,CLR,,0.01,WeatherDisplay:10.37,2013-05-19 09:01:00,
2013-05-19 05:06:00,66.1,65.5,30.08,ESE,103,0.0,0.0,98,0.00,CLR,,0.01,WeatherDisplay:10.37,2013-05-19 09:06:00,
2013-05-19 05:11:00,66.1,65.5,30.08,ESE,103,0.0,0.0,98,0.00,CLR,,0.01,WeatherDisplay:10.37,2013-05-19 09:11:00,
2013-05-19 05:16:00,66.1,65.5,30.08,ESE,103,0.0,0.0,98,0.00,CLR,,0.01,WeatherDisplay:10.37,2013-05-19 09:16:00,
2013-05-19 05:21:00,66.2,65.6,30.08,East,90,0.0,0.0,98,0.00,CLR,,0.01,WeatherDisplay:10.37,2013-05-19 09:21:00,
2013-05-19 05:26:00,66.2,65.6,30.08,East,99,0.0,0.0,98,0.00,CLR,,0.01,WeatherDisplay:10.37,2013-05-19 09:26:00,
2013-05-19 05:31:00,66.2,65.6,30.08,East,99,0.0,0.0,98,0.00,CLR,,0.01,WeatherDisplay:10.37,2013-05-19 09:31:00,
2013-05-19 05:36:00,66.2,65.6,30.08,South,187,0.0,0.0,98,0.00,CLR,,0.01,WeatherDisplay:10.37,2013-05-19 09:36:00,
2013-05-19 05:41:00,66.3,65.7,30.09,ESE,113,0.0,0.0,98,0.00,CLR,,0.01,WeatherDisplay:10.37,2013-05-19 09:41:00,
2013-05-19 05:46:00,66.3,65.7,30.09,ESE,117,1.1,1.1,98,0.00,CLR,,0.01,WeatherDisplay:10.37,2013-05-19 09:46:00,
2013-05-19 05:51:00,66.4,65.8,30.09,ESE,122,1.0,1.0,98,0.00,CLR,,0.01,WeatherDisplay:10.37,2013-05-19 09:51:00,
2013-05-19 05:56:00,66.4,65.8,30.09,SE,130,0.0,0.0,98,0.00,CLR,,0.01,WeatherDisplay:10.37,2013-05-19 09:56:00,
2013-05-19 06:01:00,66.4,65.8,30.09,SE,140,0.0,0.0,98,0.00,CLR,,0.01,WeatherDisplay:10.37,2013-05-19 10:01:00,
2013-05-19 06:06:00,66.5,65.9,30.09,East,90,2.3,2.3,98,0.00,CLR,,0.01,WeatherDisplay:10.37,2013-05-19 10:06:00,
2013-05-19 06:11:00,66.5,65.9,30.09,ESE,106,1.0,1.0,98,0.00,CLR,,0.01,WeatherDisplay:10.37,2013-05-19 10:11:00,
2013-05-19 06:16:00,66.6,66.0,30.09,ESE,106,0.0,0.0,98,0.00,CLR,,0.01,WeatherDisplay:10.37,2013-05-19 10:16:00,
2013-05-19 06:21:00,66.6,66.0,30.10,ESE,107,0.0,0.0,98,0.00,CLR,,0.01,WeatherDisplay:10.37,2013-05-19 10:21:00,
2013-05-19 06:26:00,66.6,66.0,30.10,ESE,103,0.0,0.0,98,0.00,CLR,,0.01,WeatherDisplay:10.37,2013-05-19 10:26:00,
2013-05-19 06:31:00,66.6,66.0,30.10,ESE,104,0.0,0.0,98,0.00,CLR,,0.01,WeatherDisplay:10.37,2013-05-19 10:31:00,
2013-05-19 06:36:00,66.6,66.0,30.10,SSE,163,0.0,0.0,98,0.00,CLR,,0.01,WeatherDisplay:10.37,2013-05-19 10:36:00,
2013-05-19 06:41:00,66.7,66.1,30.10,SE,129,1.1,0.0,98,0.00,CLR,,0.01,WeatherDisplay:10.37,2013-05-19 10:41:00,
2013-05-19 06:46:00,66.7,66.1,30.10,East,101,1.1,1.1,98,0.00,CLR,,0.01,WeatherDisplay:10.37,2013-05-19 10:46:00,
2013-05-19 06:51:00,66.7,66.1,30.10,SSE,153,0.0,0.0,98,0.00,CLR,,0.01,WeatherDisplay:10.37,2013-05-19 10:51:00,
2013-05-19 06:56:00,66.8,66.2,30.10,SE,142,0.0,0.0,98,0.00,CLR,,0.01,WeatherDisplay:10.37,2013-05-19 10:56:00,
2013-05-19 07:01:00,66.8,66.2,30.10,SE,141,0.0,0.0,98,0.00,CLR,,0.01,WeatherDisplay:10.37,2013-05-19 11:01:00,
2013-05-19 07:06:00,66.9,66.3,30.11,South,172,1.1,0.0,98,0.00,CLR,,0.01,WeatherDisplay:10.37,2013-05-19 11:06:00,
2013-05-19 07:11:00,66.9,66.3,30.11,SE,143,0.0,0.0,98,0.00,CLR,,0.01,WeatherDisplay:10.37,2013-05-19 11:11:00,
2013-05-19 07:16:00,66.9,66.3,30.11,SE,127,1.1,1.1,98,0.00,CLR,,0.01,WeatherDisplay:10.37,2013-05-19 11:16:00,
2013-05-19 07:21:00,67.0,66.4,30.11,ESE,120,0.0,0.0,98,0.00,CLR,,0.01,WeatherDisplay:10.37,2013-05-19 11:21:00,
2013-05-19 07:26:00,67.0,66.4,30.11,South,173,0.0,0.0,98,0.00,CLR,,0.01,WeatherDisplay:10.37,2013-05-19 11:26:00,
2013-05-19 07:31:00,67.0,66.4,30.11,SSW,211,2.3,2.3,98,0.00,CLR,,0.01,WeatherDisplay:10.37,2013-05-19 11:31:00,
2013-05-19 07:36:00,67.1,66.5,30.11,SSW,212,0.0,0.0,98,0.00,CLR,,0.01,WeatherDisplay:10.37,2013-05-19 11:36:00,
2013-05-19 07:41:00,67.1,66.5,30.11,SE,143,0.0,0.0,98,0.00,CLR,,0.01,WeatherDisplay:10.37,2013-05-19 11:41:00,
2013-05-19 07:46:00,67.1,66.5,30.11,ESE,115,1.1,0.0,98,0.00,CLR,,0.01,WeatherDisplay:10.37,2013-05-19 11:46:00,
2013-05-19 07:51:00,67.1,66.5,30.11,SSE,156,2.3,2.3,98,0.00,CLR,,0.01,WeatherDisplay:10.37,2013-05-19 11:51:00,
2013-05-19 07:56:00,67.1,66.5,30.11,East,91,1.1,0.0,98,0.00,CLR,,0.01,WeatherDisplay:10.37,2013-05-19 11:56:00,
2013-05-19 08:01:00,67.1,66.5,30.11,SE,124,1.1,0.0,98,0.00,CLR,,0.01,WeatherDisplay:10.37,2013-05-19 12:01:00,
2013-05-19 08:06:00,67.2,66.6,30.11,SE,146,3.5,3.5,98,0.00,CLR,,0.01,WeatherDisplay:10.37,2013-05-19 12:06:00,
2013-05-19 08:11:00,67.2,66.6,30.11,ESE,108,1.0,1.0,98,0.00,CLR,,0.01,WeatherDisplay:10.37,2013-05-19 12:11:00,
2013-05-19 08:16:00,67.3,66.7,30.11,SE,127,1.0,0.0,98,0.00,CLR,,0.01,WeatherDisplay:10.37,2013-05-19 12:16:00,
2013-05-19 08:21:00,67.4,66.8,30.11,West,269,2.3,2.3,98,0.00,CLR,,0.01,WeatherDisplay:10.37,2013-05-19 12:21:00,
2013-05-19 08:26:00,67.4,66.8,30.11,ENE,78,0.0,0.0,98,0.00,CLR,,0.01,WeatherDisplay:10.37,2013-05-19 12:26:00,
2013-05-19 08:31:00,67.5,66.9,30.11,North,351,0.0,0.3,98,0.00,CLR,,0.01,WeatherDisplay:10.37,2013-05-19 12:31:00,
2013-05-19 08:36:00,67.6,67.0,30.11,ESE,104,2.3,2.3,98,0.00,CLR,,0.01,WeatherDisplay:10.37,2013-05-19 12:36:00,
2013-05-19 08:41:00,67.6,67.0,30.12,ESE,111,3.5,3.5,98,0.00,CLR,,0.01,WeatherDisplay:10.37,2013-05-19 12:41:00,
2013-05-19 08:46:00,67.7,67.1,30.12,WSW,239,1.1,1.1,98,0.00,CLR,,0.01,WeatherDisplay:10.37,2013-05-19 12:46:00,
2013-05-19 08:51:00,67.8,67.2,30.12,ENE,68,1.1,1.1,98,0.00,CLR,,0.01,WeatherDisplay:10.37,2013-05-19 12:51:00,
2013-05-19 08:56:00,67.9,67.3,30.12,NE,54,2.3,2.3,98,0.00,CLR,,0.01,WeatherDisplay:10.37,2013-05-19 12:56:00,
2013-05-19 09:01:00,68.1,67.5,30.12,ESE,122,1.1,1.1,98,0.00,CLR,,0.01,WeatherDisplay:10.37,2013-05-19 13:01:00,
2013-05-19 09:06:00,68.3,67.7,30.12,ESE,115,2.3,2.3,98,0.00,CLR,,0.01,WeatherDisplay:10.37,2013-05-19 13:06:00,
2013-05-19 09:11:00,68.5,67.9,30.12,ESE,120,1.1,1.1,98,0.00,CLR,,0.01,WeatherDisplay:10.37,2013-05-19 13:11:00,
2013-05-19 09:16:00,68.8,68.2,30.12,ESE,110,2.3,0.0,98,0.00,CLR,,0.01,WeatherDisplay:10.37,2013-05-19 13:16:00,
2013-05-19 09:21:00,69.0,68.4,30.12,ESE,120,2.0,2.0,98,0.00,CLR,,0.01,WeatherDisplay:10.37,2013-05-19 13:21:00,
2013-05-19 09:26:00,69.2,68.6,30.13,East,99,3.5,3.5,98,0.00,CLR,,0.01,WeatherDisplay:10.37,2013-05-19 13:26:00,
2013-05-19 09:31:00,69.3,68.4,30.12,ESE,110,2.3,2.3,97,0.00,CLR,,0.01,WeatherDisplay:10.37,2013-05-19 13:31:00,
2013-05-19 09:36:00,69.5,68.6,30.12,NE,49,2.3,2.3,97,0.00,CLR,,0.01,WeatherDisplay:10.37,2013-05-19 13:36:00,
2013-05-19 09:41:00,69.7,68.8,30.12,ESE,122,2.3,2.3,97,0.00,CLR,,0.01,WeatherDisplay:10.37,2013-05-19 13:41:00,
2013-05-19 09:46:00,70.0,68.8,30.12,SW,233,2.3,2.3,96,0.00,CLR,,0.01,WeatherDisplay:10.37,2013-05-19 13:46:00,
2013-05-19 09:51:00,70.1,68.6,30.12,East,82,5.8,5.8,95,0.00,CLR,,0.01,WeatherDisplay:10.37,2013-05-19 13:51:00,
2013-05-19 09:56:00,70.4,68.9,30.12,East,86,4.6,4.6,95,0.00,CLR,,0.01,WeatherDisplay:10.37,2013-05-19 13:56:00,
2013-05-19 10:01:00,70.5,68.7,30.12,East,84,4.0,4.0,94,0.00,CLR,,0.01,WeatherDisplay:10.37,2013-05-19 14:01:00,
2013-05-19 10:06:00,70.7,68.9,30.12,ESE,109,2.3,2.3,94,0.00,CLR,,0.01,WeatherDisplay:10.37,2013-05-19 14:06:00,
2013-05-19 10:11:00,70.9,69.1,30.12,ESE,115,3.5,0.0,94,0.00,CLR,,0.01,WeatherDisplay:10.37,2013-05-19 14:11:00,
2013-05-19 10:17:00,71.1,69.0,30.12,SE,131,3.5,0.0,93,0.00,CLR,,0.01,WeatherDisplay:10.37,2013-05-19 14:17:00,
2013-05-19 10:22:00,71.3,69.2,30.12,SSE,150,2.3,2.3,93,0.00,CLR,,0.01,WeatherDisplay:10.37,2013-05-19 14:22:00,
2013-05-19 10:27:00,71.5,69.1,30.12,SSW,208,2.3,2.3,92,0.00,CLR,,0.01,WeatherDisplay:10.37,2013-05-19 14:27:00,
2013-05-19 10:32:00,71.7,69.3,30.12,ENE,78,2.3,2.3,92,0.00,CLR,,0.01,WeatherDisplay:10.37,2013-05-19 14:32:00,
2013-05-19 10:37:00,71.9,69.4,30.12,NW,321,1.1,1.1,92,0.00,CLR,,0.01,WeatherDisplay:10.37,2013-05-19 14:37:00,
2013-05-19 10:42:00,72.1,69.0,30.12,ENE,60,3.5,3.5,90,0.00,CLR,,0.01,WeatherDisplay:10.37,2013-05-19 14:42:00,
2013-05-19 10:47:00,72.4,69.6,30.12,WSW,248,1.1,1.1,91,0.00,CLR,,0.01,WeatherDisplay:10.37,2013-05-19 14:47:00,
2013-05-19 10:52:00,72.6,69.5,30.12,East,79,3.5,3.5,90,0.00,CLR,,0.01,WeatherDisplay:10.37,2013-05-19 14:52:00,
2013-05-19 10:57:00,73.0,69.9,30.12,East,94,0.0,0.0,90,0.00,CLR,,0.01,WeatherDisplay:10.37,2013-05-19 14:57:00,
2013-05-19 11:02:00,73.5,69.4,30.12,East,79,3.5,3.5,87,0.00,CLR,,0.01,WeatherDisplay:10.37,2013-05-19 15:02:00,
2013-05-19 11:07:00,73.7,69.6,30.12,East,97,5.8,5.8,87,0.00,CLR,,0.01,WeatherDisplay:10.37,2013-05-19 15:07:00,
2013-05-19 11:12:00,73.9,70.1,30.12,SE,132,2.3,2.3,88,0.00,CLR,,0.01,WeatherDisplay:10.37,2013-05-19 15:12:00,
2013-05-19 11:17:00,74.2,70.1,30.12,SSW,200,3.5,3.5,87,0.00,CLR,,0.01,WeatherDisplay:10.37,2013-05-19 15:17:00,
2013-05-19 11:22:00,74.5,70.4,30.12,East,100,1.1,1.1,87,0.00,CLR,,0.01,WeatherDisplay:10.37,2013-05-19 15:22:00,
2013-05-19 11:27:00,74.9,70.4,30.11,SE,125,3.5,3.5,86,0.00,CLR,,0.01,WeatherDisplay:10.37,2013-05-19 15:27:00,
2013-05-19 11:32:00,75.4,70.2,30.11,East,82,3.5,3.5,84,0.00,CLR,,0.01,WeatherDisplay:10.37,2013-05-19 15:32:00,
2013-05-19 11:37:00,75.8,71.0,30.11,SSW,199,2.3,2.3,85,0.00,CLR,,0.01,WeatherDisplay:10.37,2013-05-19 15:37:00,
2013-05-19 11:42:00,76.1,70.2,30.11,West,278,1.1,1.1,82,0.00,CLR,,0.01,WeatherDisplay:10.37,2013-05-19 15:42:00,
2013-05-19 11:47:00,76.2,69.9,30.11,East,90,3.5,3.5,81,0.00,CLR,,0.01,WeatherDisplay:10.37,2013-05-19 15:47:00,
2013-05-19 11:52:00,75.9,69.6,30.10,WNW,300,3.5,3.5,81,0.00,CLR,,0.01,WeatherDisplay:10.37,2013-05-19 15:52:00,
2013-05-19 11:57:00,76.2,70.7,30.10,East,98,5.0,5.0,83,0.00,CLR,,0.01,WeatherDisplay:10.37,2013-05-19 15:57:00,
2013-05-19 12:02:00,76.3,70.0,30.10,ENE,60,1.1,1.1,81,0.00,CLR,,0.01,WeatherDisplay:10.37,2013-05-19 16:02:00,
2013-05-19 12:07:00,76.4,69.8,30.10,East,89,2.3,2.3,80,0.00,CLR,,0.01,WeatherDisplay:10.37,2013-05-19 16:07:00,
2013-05-19 12:12:00,76.6,70.0,30.10,SW,221,1.1,1.1,80,0.00,CLR,,0.01,WeatherDisplay:10.37,2013-05-19 16:12:00,
2013-05-19 12:17:00,76.7,69.7,30.10,WSW,257,1.1,1.1,79,0.00,CLR,,0.01,WeatherDisplay:10.37,2013-05-19 16:17:00,
2013-05-19 12:22:00,76.7,70.1,30.09,ESE,115,1.1,1.1,80,0.00,CLR,,0.01,WeatherDisplay:10.37,2013-05-19 16:22:00,
2013-05-19 12:27:00,76.6,69.6,30.09,ENE,64,1.1,1.1,79,0.00,CLR,,0.01,WeatherDisplay:10.37,2013-05-19 16:27:00,
2013-05-19 12:32:00,76.9,69.9,30.09,WSW,256,3.0,3.0,79,0.00,CLR,,0.01,WeatherDisplay:10.37,2013-05-19 16:32:00,
2013-05-19 12:37:00,77.3,70.6,30.09,ESE,117,3.5,3.5,80,0.00,CLR,,0.01,WeatherDisplay:10.37,2013-05-19 16:37:00,
2013-05-19 12:42:00,77.3,69.9,30.09,ESE,104,3.5,3.5,78,0.00,CLR,,0.01,WeatherDisplay:10.37,2013-05-19 16:42:00,
2013-05-19 12:47:00,77.3,70.3,30.09,East,99,4.6,4.6,79,0.00,CLR,,0.01,WeatherDisplay:10.37,2013-05-19 16:47:00,
2013-05-19 12:52:00,76.6,70.0,30.08,South,178,2.3,2.3,80,0.00,CLR,,0.01,WeatherDisplay:10.37,2013-05-19 16:52:00,
2013-05-19 12:57:00,76.2,70.3,30.08,East,89,3.5,3.5,82,0.00,CLR,,0.01,WeatherDisplay:10.37,2013-05-19 16:57:00,
2013-05-19 13:02:00,76.6,71.0,30.08,East,98,3.5,3.5,83,0.00,CLR,,0.01,WeatherDisplay:10.37,2013-05-19 17:02:00,
2013-05-19 13:07:00,76.8,70.5,30.08,ESE,120,3.5,3.5,81,0.00,CLR,,0.01,WeatherDisplay:10.37,2013-05-19 17:07:00,
2013-05-19 13:12:00,76.7,71.1,30.08,SSE,158,4.0,4.0,83,0.00,CLR,,0.01,WeatherDisplay:10.37,2013-05-19 17:12:00,
2013-05-19 13:17:00,76.5,70.6,30.08,ESE,109,3.5,3.5,82,0.03,RA,,0.04,WeatherDisplay:10.37,2013-05-19 17:17:00,
2013-05-19 13:22:00,75.2,70.4,30.08,WNW,291,3.0,3.0,85,0.26,RA,,0.28,WeatherDisplay:10.37,2013-05-19 17:22:00,
2013-05-19 13:27:00,73.4,69.6,30.07,North,4,0.0,0.0,88,0.43,RA,,0.44,WeatherDisplay:10.37,2013-05-19 17:27:00,
2013-05-19 13:32:00,72.3,69.2,30.07,NE,37,0.0,0.0,90,0.49,RA,,0.51,WeatherDisplay:10.37,2013-05-19 17:32:00,
2013-05-19 13:37:00,71.8,69.3,30.07,NE,37,0.0,0.0,92,0.50,RA,,0.51,WeatherDisplay:10.37,2013-05-19 17:37:00,
2013-05-19 13:42:00,71.4,69.3,30.07,NE,41,0.0,0.0,93,0.50,RA,,0.51,WeatherDisplay:10.37,2013-05-19 17:42:00,
2013-05-19 13:47:00,71.3,69.5,30.09,SSW,212,8.1,8.1,94,0.59,RA,,0.63,WeatherDisplay:10.37,2013-05-19 17:47:00,
2013-05-19 13:52:00,69.7,66.6,30.09,ESE,122,4.6,4.6,90,1.12,RA,,1.16,WeatherDisplay:10.37,2013-05-19 17:52:00,
2013-05-19 13:57:00,68.6,66.2,30.09,ESE,112,5.0,5.0,92,1.43,RA,,1.45,WeatherDisplay:10.37,2013-05-19 17:57:00,
2013-05-19 14:02:00,68.0,66.2,30.08,ESE,108,4.6,4.6,94,1.51,RA,,1.52,WeatherDisplay:10.37,2013-05-19 18:02:00,
2013-05-19 14:07:00,67.7,66.2,30.08,WSW,249,3.5,3.5,95,1.54,RA,,1.55,WeatherDisplay:10.37,2013-05-19 18:07:00,
2013-05-19 14:12:00,67.8,66.3,30.08,SSE,148,3.5,3.5,95,1.54,RA,,1.55,WeatherDisplay:10.37,2013-05-19 18:12:00,
2013-05-19 14:17:00,67.9,66.4,30.08,ESE,111,3.0,3.0,95,1.51,,,1.55,WeatherDisplay:10.37,2013-05-19 18:17:00,
2013-05-19 14:22:00,68.1,66.9,30.08,East,92,2.3,2.3,96,1.28,CLR,,1.55,WeatherDisplay:10.37,2013-05-19 18:22:00,
2013-05-19 14:27:00,68.1,66.6,30.08,East,99,5.0,5.0,95,1.11,CLR,,1.55,WeatherDisplay:10.37,2013-05-19 18:27:00,
2013-05-19 14:32:00,68.4,66.9,30.08,East,96,4.0,4.0,95,1.05,CLR,,1.55,WeatherDisplay:10.37,2013-05-19 18:32:00,
2013-05-19 14:37:00,69.5,68.6,30.08,ESE,121,2.0,2.0,97,1.04,CLR,,1.55,WeatherDisplay:10.37,2013-05-19 18:37:00,
2013-05-19 14:42:00,70.3,68.2,30.07,East,99,5.0,5.0,93,1.04,CLR,,1.55,WeatherDisplay:10.37,2013-05-19 18:42:00,
2013-05-19 14:47:00,71.0,68.9,30.07,ENE,67,2.3,2.3,93,0.95,CLR,,1.55,WeatherDisplay:10.37,2013-05-19 18:47:00,
2013-05-19 14:52:00,71.9,68.8,30.07,SE,145,5.0,5.0,90,0.42,CLR,,1.55,WeatherDisplay:10.37,2013-05-19 18:52:00,
2013-05-19 14:57:00,72.4,68.6,30.07,NNW,339,3.5,3.5,88,0.11,CLR,,1.55,WeatherDisplay:10.37,2013-05-19 18:57:00,
2013-05-19 15:02:00,72.7,68.3,30.07,NNE,13,6.9,6.9,86,0.03,CLR,,1.55,WeatherDisplay:10.37,2013-05-19 19:02:00,
2013-05-19 15:07:00,73.0,68.2,30.06,SE,124,6.0,6.0,85,0.00,CLR,,1.55,WeatherDisplay:10.37,2013-05-19 19:07:00,
2013-05-19 15:12:00,73.6,68.5,30.06,ESE,105,3.5,3.5,84,0.00,CLR,,1.55,WeatherDisplay:10.37,2013-05-19 19:12:00,
2013-05-19 15:17:00,74.6,69.4,30.06,North,358,2.3,2.3,84,0.00,CLR,,1.55,WeatherDisplay:10.37,2013-05-19 19:17:00,
2013-05-19 15:22:00,74.6,68.7,30.06,SE,138,4.0,4.0,82,0.00,CLR,,1.55,WeatherDisplay:10.37,2013-05-19 19:22:00,
2013-05-19 15:27:00,74.4,69.2,30.05,SSE,164,2.3,2.3,84,0.00,CLR,,1.55,WeatherDisplay:10.37,2013-05-19 19:27:00,
2013-05-19 15:32:00,74.5,69.7,30.05,ENE,64,2.3,2.3,85,0.00,CLR,,1.55,WeatherDisplay:10.37,2013-05-19 19:32:00,
2013-05-19 15:37:00,74.6,69.1,30.05,SSE,159,9.2,9.2,83,0.00,CLR,,1.55,WeatherDisplay:10.37,2013-05-19 19:37:00,
2013-05-19 15:42:00,75.3,69.8,30.05,ESE,120,9.0,9.0,83,0.00,CLR,,1.55,WeatherDisplay:10.37,2013-05-19 19:42:00,
2013-05-19 15:47:00,75.2,68.2,30.04,SE,143,12.7,12.7,79,0.00,CLR,,1.55,WeatherDisplay:10.37,2013-05-19 19:47:00,
2013-05-19 15:52:00,75.6,70.1,30.04,East,89,5.8,5.8,83,0.00,CLR,,1.55,WeatherDisplay:10.37,2013-05-19 19:52:00,
2013-05-19 15:57:00,76.2,70.3,30.04,East,86,6.9,6.9,82,0.00,CLR,,1.55,WeatherDisplay:10.37,2013-05-19 19:57:00,
2013-05-19 16:02:00,76.6,70.0,30.04,SSW,210,2.3,2.3,80,0.00,CLR,,1.55,WeatherDisplay:10.37,2013-05-19 20:02:00,
2013-05-19 16:07:00,77.4,70.7,30.04,North,356,2.3,2.3,80,0.00,CLR,,1.55,WeatherDisplay:10.37,2013-05-19 20:07:00,
2013-05-19 16:12:00,77.0,70.0,30.04,SE,124,6.9,6.9,79,0.00,CLR,,1.55,WeatherDisplay:10.37,2013-05-19 20:12:00,
2013-05-19 16:17:00,76.8,69.8,30.04,NE,41,2.3,2.3,79,0.00,CLR,,1.55,WeatherDisplay:10.37,2013-05-19 20:17:00,
2013-05-19 16:22:00,76.8,69.0,30.04,ENE,72,6.9,6.9,77,0.00,CLR,,1.55,WeatherDisplay:10.37,2013-05-19 20:22:00,
2013-05-19 16:27:00,77.0,69.2,30.04,ESE,117,5.8,5.8,77,0.00,CLR,,1.55,WeatherDisplay:10.37,2013-05-19 20:27:00,
2013-05-19 16:32:00,77.8,70.0,30.04,NW,326,1.1,1.1,77,0.00,CLR,,1.55,WeatherDisplay:10.37,2013-05-19 20:32:00,
2013-05-19 16:37:00,78.8,69.8,30.04,East,86,3.5,3.5,74,0.00,CLR,,1.55,WeatherDisplay:10.37,2013-05-19 20:37:00,
2013-05-19 16:42:00,78.6,68.8,30.04,SW,221,3.5,3.5,72,0.00,CLR,,1.55,WeatherDisplay:10.37,2013-05-19 20:42:00,
2013-05-19 16:47:00,78.4,68.6,30.04,NE,54,3.5,3.5,72,0.00,CLR,,1.55,WeatherDisplay:10.37,2013-05-19 20:47:00,
2013-05-19 16:52:00,78.5,69.1,30.04,East,100,4.6,4.6,73,0.00,CLR,,1.55,WeatherDisplay:10.37,2013-05-19 20:52:00,
2013-05-19 16:57:00,78.6,69.2,30.04,ESE,118,3.5,3.5,73,0.00,CLR,,1.55,WeatherDisplay:10.37,2013-05-19 20:57:00,
2013-05-19 17:02:00,78.2,68.4,30.04,East,88,11.5,11.5,72,0.00,CLR,,1.55,WeatherDisplay:10.37,2013-05-19 21:02:00,
2013-05-19 17:07:00,77.8,68.4,30.03,ENE,68,3.5,3.5,73,0.00,CLR,,1.55,WeatherDisplay:10.37,2013-05-19 21:07:00,
2013-05-19 17:12:00,77.3,68.0,30.04,South,174,5.0,5.0,73,0.00,CLR,,1.55,WeatherDisplay:10.37,2013-05-19 21:12:00,
2013-05-19 17:17:00,76.6,67.3,30.03,ESE,104,6.9,6.9,73,0.00,CLR,,1.55,WeatherDisplay:10.37,2013-05-19 21:17:00,
2013-05-19 17:22:00,76.0,67.5,30.03,NE,51,3.0,3.0,75,0.00,CLR,,1.55,WeatherDisplay:10.37,2013-05-19 21:22:00,
2013-05-19 17:27:00,75.7,67.2,30.03,NE,35,8.1,8.1,75,0.00,CLR,,1.55,WeatherDisplay:10.37,2013-05-19 21:27:00,
2013-05-19 17:32:00,75.5,67.0,30.04,SE,128,3.5,3.5,75,0.00,CLR,,1.55,WeatherDisplay:10.37,2013-05-19 21:32:00,
2013-05-19 17:37:00,75.4,66.5,30.03,SSE,148,3.5,3.5,74,0.00,CLR,,1.55,WeatherDisplay:10.37,2013-05-19 21:37:00,
2013-05-19 17:42:00,75.3,66.4,30.04,East,94,0.0,0.2,74,0.00,CLR,,1.55,WeatherDisplay:10.37,2013-05-19 21:42:00,
2013-05-19 17:47:00,75.2,66.3,30.04,East,89,2.3,2.3,74,0.00,CLR,,1.55,WeatherDisplay:10.37,2013-05-19 21:47:00,
2013-05-19 17:52:00,75.0,66.5,30.04,ESE,116,3.0,3.0,75,0.00,CLR,,1.55,WeatherDisplay:10.37,2013-05-19 21:52:00,
2013-05-19 17:57:00,74.9,66.4,30.03,East,101,3.5,3.5,75,0.00,CLR,,1.55,WeatherDisplay:10.37,2013-05-19 21:57:00,
2013-05-19 18:02:00,74.7,66.2,30.03,East,90,5.8,5.8,75,0.00,CLR,,1.55,WeatherDisplay:10.37,2013-05-19 22:02:00,
2013-05-19 18:07:00,74.6,66.1,30.03,SE,128,3.5,3.5,75,0.00,CLR,,1.55,WeatherDisplay:10.37,2013-05-19 22:07:00,
2013-05-19 18:12:00,74.5,66.1,30.03,East,94,5.0,5.0,75,0.00,CLR,,1.55,WeatherDisplay:10.37,2013-05-19 22:12:00,
2013-05-19 18:17:00,74.5,66.4,30.03,ESE,117,3.5,3.5,76,0.00,CLR,,1.55,WeatherDisplay:10.37,2013-05-19 22:17:00,
2013-05-19 18:22:00,74.4,66.7,30.03,SE,136,3.5,3.5,77,0.00,CLR,,1.55,WeatherDisplay:10.37,2013-05-19 22:22:00,
2013-05-19 18:27:00,74.2,66.5,30.03,ESE,116,4.6,4.6,77,0.00,CLR,,1.55,WeatherDisplay:10.37,2013-05-19 22:27:00,
2013-05-19 18:32:00,74.2,66.9,30.03,WSW,249,1.1,1.1,78,0.00,CLR,,1.55,WeatherDisplay:10.37,2013-05-19 22:32:00,
2013-05-19 18:37:00,74.1,67.2,30.04,East,82,3.5,3.5,79,0.00,CLR,,1.55,WeatherDisplay:10.37,2013-05-19 22:37:00,
2013-05-19 18:42:00,74.1,67.2,30.04,ESE,107,1.1,1.1,79,0.00,CLR,,1.55,WeatherDisplay:10.37,2013-05-19 22:42:00,
2013-05-19 18:47:00,74.1,67.5,30.04,SE,132,2.3,2.3,80,0.00,CLR,,1.55,WeatherDisplay:10.37,2013-05-19 22:47:00,
2013-05-19 18:52:00,74.0,67.4,30.04,SE,125,3.5,3.5,80,0.00,CLR,,1.55,WeatherDisplay:10.37,2013-05-19 22:52:00,
2013-05-19 18:57:00,74.0,67.4,30.04,East,100,1.1,0.0,80,0.00,CLR,,1.55,WeatherDisplay:10.37,2013-05-19 22:57:00,
2013-05-19 19:02:00,73.9,67.7,30.04,East,86,1.0,0.0,81,0.00,CLR,,1.55,WeatherDisplay:10.37,2013-05-19 23:02:00,
2013-05-19 19:07:00,73.8,67.6,30.04,East,79,0.0,0.3,81,0.00,CLR,,1.55,WeatherDisplay:10.37,2013-05-19 23:07:00,
2013-05-19 19:12:00,73.7,67.9,30.04,East,98,1.1,0.0,82,0.00,CLR,,1.55,WeatherDisplay:10.37,2013-05-19 23:12:00,
2013-05-19 19:17:00,73.6,67.8,30.04,ESE,113,3.5,3.5,82,0.00,CLR,,1.55,WeatherDisplay:10.37,2013-05-19 23:17:00,
2013-05-19 19:22:00,73.5,68.0,30.04,SE,132,2.3,2.3,83,0.00,CLR,,1.55,WeatherDisplay:10.37,2013-05-19 23:22:00,
2013-05-19 19:27:00,73.3,67.8,30.04,South,191,3.0,3.0,83,0.00,CLR,,1.55,WeatherDisplay:10.37,2013-05-19 23:27:00,
2013-05-19 19:32:00,73.2,68.1,30.05,SE,134,0.0,0.4,84,0.00,CLR,,1.55,WeatherDisplay:10.37,2013-05-19 23:32:00,
2013-05-19 19:37:00,73.1,68.3,30.04,SE,127,0.0,0.0,85,0.00,CLR,,1.55,WeatherDisplay:10.37,2013-05-19 23:37:00,
2013-05-19 19:42:00,73.0,68.2,30.04,East,79,0.0,0.0,85,0.00,CLR,,1.55,WeatherDisplay:10.37,2013-05-19 23:42:00,
2013-05-19 19:47:00,72.8,68.4,30.04,East,84,1.1,0.0,86,0.00,CLR,,1.55,WeatherDisplay:10.37,2013-05-19 23:47:00,
2013-05-19 19:52:00,72.7,68.6,30.04,ENE,74,1.1,0.0,87,0.00,CLR,,1.55,WeatherDisplay:10.37,2013-05-19 23:52:00,
2013-05-19 19:57:00,72.6,68.5,30.04,SE,127,0.0,0.0,87,0.00,CLR,,1.55,WeatherDisplay:10.37,2013-05-19 23:57:00,
2013-05-19 20:02:00,72.5,68.7,30.05,SW,225,1.1,1.1,88,0.00,CLR,,1.55,WeatherDisplay:10.37,2013-05-20 00:02:00,
2013-05-19 20:07:00,72.5,68.7,30.04,ENE,67,0.0,0.0,88,0.00,CLR,,1.55,WeatherDisplay:10.37,2013-05-20 00:07:00,
2013-05-19 20:12:00,72.4,68.6,30.04,East,101,2.3,0.0,88,0.00,CLR,,1.55,WeatherDisplay:10.37,2013-05-20 00:12:00,
2013-05-19 20:17:00,72.4,69.0,30.05,South,190,2.0,2.0,89,0.00,CLR,,1.55,WeatherDisplay:10.37,2013-05-20 00:17:00,
2013-05-19 20:22:00,72.0,67.9,30.06,SE,146,2.3,2.3,87,0.00,CLR,,1.55,WeatherDisplay:10.37,2013-05-20 00:22:00,
2013-05-19 20:27:00,71.1,67.0,30.06,ESE,120,6.9,6.9,87,0.00,CLR,,1.56,WeatherDisplay:10.37,2013-05-20 00:27:00,
2013-05-19 20:32:00,70.2,67.1,30.06,East,91,4.0,4.0,90,0.02,RA,,1.57,WeatherDisplay:10.37,2013-05-20 00:32:00,
2013-05-19 20:37:00,69.5,66.8,30.07,ESE,108,3.5,3.5,91,0.04,RA,,1.59,WeatherDisplay:10.37,2013-05-20 00:37:00,
2013-05-19 20:42:00,68.9,66.8,30.06,ESE,102,3.5,3.5,93,0.06,RA,,1.61,WeatherDisplay:10.37,2013-05-20 00:42:00,
2013-05-19 20:47:00,68.6,66.8,30.06,ESE,117,2.3,2.3,94,0.07,RA,,1.63,WeatherDisplay:10.37,2013-05-20 00:47:00,
2013-05-19 20:52:00,68.4,66.6,30.07,ESE,121,4.0,4.0,94,0.08,RA,,1.64,WeatherDisplay:10.37,2013-05-20 00:52:00,
2013-05-19 20:57:00,68.3,66.8,30.07,West,259,2.3,2.3,95,0.09,RA,,1.64,WeatherDisplay:10.37,2013-05-20 00:57:00,
2013-05-19 21:02:00,68.2,66.7,30.07,NE,45,0.0,0.0,95,0.10,RA,,1.65,WeatherDisplay:10.37,2013-05-20 01:02:00,
2013-05-19 21:07:00,68.1,66.6,30.07,NW,316,2.3,0.0,95,0.11,RA,,1.66,WeatherDisplay:10.37,2013-05-20 01:07:00,
2013-05-19 21:13:00,68.0,66.8,30.07,East,89,0.0,0.1,96,0.12,RA,,1.67,WeatherDisplay:10.37,2013-05-20 01:13:00,
2013-05-19 21:18:00,67.9,66.7,30.08,WNW,294,3.5,3.5,96,0.13,RA,,1.68,WeatherDisplay:10.37,2013-05-20 01:18:00,
2013-05-19 21:23:00,67.9,66.7,30.08,SSW,203,3.5,3.5,96,0.14,RA,,1.69,WeatherDisplay:10.37,2013-05-20 01:23:00,
2013-05-19 21:28:00,67.9,66.7,30.08,SE,133,2.3,2.3,96,0.15,RA,,1.71,WeatherDisplay:10.37,2013-05-20 01:28:00,
2013-05-19 21:33:00,67.8,66.6,30.08,SSW,211,1.1,2.0,96,0.15,RA,,1.72,WeatherDisplay:10.37,2013-05-20 01:33:00,
2013-05-19 21:38:00,67.7,66.5,30.08,ENE,58,1.1,1.1,96,0.14,RA,,1.74,WeatherDisplay:10.37,2013-05-20 01:38:00,
2013-05-19 21:43:00,67.6,66.4,30.08,East,86,2.3,2.3,96,0.14,RA,,1.75,WeatherDisplay:10.37,2013-05-20 01:43:00,
2013-05-19 21:48:00,67.6,66.4,30.08,SE,127,4.6,4.6,96,0.14,RA,,1.77,WeatherDisplay:10.37,2013-05-20 01:48:00,
2013-05-19 21:53:00,67.5,66.3,30.08,East,96,3.5,3.5,96,0.14,RA,,1.78,WeatherDisplay:10.37,2013-05-20 01:53:00,
2013-05-19 21:58:00,67.5,66.3,30.08,ESE,105,2.3,2.3,96,0.14,RA,,1.78,WeatherDisplay:10.37,2013-05-20 01:58:00,
2013-05-19 22:03:00,67.5,66.6,30.09,East,89,4.6,4.6,97,0.13,,,1.78,WeatherDisplay:10.37,2013-05-20 02:03:00,
2013-05-19 22:08:00,67.5,66.6,30.09,ENE,71,4.6,4.6,97,0.12,CLR,,1.78,WeatherDisplay:10.37,2013-05-20 02:08:00,
2013-05-19 22:13:00,67.5,66.6,30.09,SSE,154,4.6,4.6,97,0.11,CLR,,1.78,WeatherDisplay:10.37,2013-05-20 02:13:00,
2013-05-19 22:18:00,67.5,66.6,30.09,SE,135,1.1,1.1,97,0.10,CLR,,1.78,WeatherDisplay:10.37,2013-05-20 02:18:00,
2013-05-19 22:23:00,67.4,66.5,30.09,ESE,104,2.3,2.3,97,0.09,CLR,,1.78,WeatherDisplay:10.37,2013-05-20 02:23:00,
2013-05-19 22:28:00,67.4,66.5,30.09,ESE,113,1.0,0.0,97,0.07,CLR,,1.78,WeatherDisplay:10.37,2013-05-20 02:28:00,
2013-05-19 22:33:00,67.4,66.5,30.09,ESE,106,2.3,2.3,97,0.06,CLR,,1.78,WeatherDisplay:10.37,2013-05-20 02:33:00,
2013-05-19 22:38:00,67.4,66.5,30.09,East,84,2.3,2.3,97,0.04,CLR,,1.78,WeatherDisplay:10.37,2013-05-20 02:38:00,
2013-05-19 22:43:00,67.3,66.4,30.09,SSE,150,2.3,2.3,97,0.03,CLR,,1.78,WeatherDisplay:10.37,2013-05-20 02:43:00,
2013-05-19 22:48:00,67.3,66.4,30.09,ESE,103,1.1,1.1,97,0.01,CLR,,1.78,WeatherDisplay:10.37,2013-05-20 02:48:00,
2013-05-19 22:53:00,67.3,66.4,30.09,ESE,113,1.1,1.1,97,0.00,CLR,,1.78,WeatherDisplay:10.37,2013-05-20 02:53:00,
2013-05-19 22:58:00,67.2,66.3,30.09,ESE,110,0.0,0.0,97,0.00,CLR,,1.78,WeatherDisplay:10.37,2013-05-20 02:58:00,
2013-05-19 23:03:00,67.2,66.3,30.09,SE,133,1.1,1.1,97,0.00,CLR,,1.78,WeatherDisplay:10.37,2013-05-20 03:03:00,
2013-05-19 23:08:00,67.2,66.3,30.08,East,81,1.1,1.1,97,0.00,CLR,,1.78,WeatherDisplay:10.37,2013-05-20 03:08:00,
2013-05-19 23:13:00,67.2,66.3,30.08,SSW,203,2.3,2.3,97,0.00,CLR,,1.78,WeatherDisplay:10.37,2013-05-20 03:13:00,
2013-05-19 23:18:00,67.2,66.3,30.08,ESE,119,1.1,0.0,97,0.00,CLR,,1.78,WeatherDisplay:10.37,2013-05-20 03:18:00,
2013-05-19 23:23:00,67.2,66.3,30.08,East,101,3.5,3.5,97,0.00,CLR,,1.78,WeatherDisplay:10.37,2013-05-20 03:23:00,
2013-05-19 23:28:00,67.2,66.3,30.08,East,91,2.0,2.0,97,0.00,CLR,,1.78,WeatherDisplay:10.37,2013-05-20 03:28:00,
2013-05-19 23:33:00,67.2,66.3,30.08,East,79,0.0,0.0,97,0.00,CLR,,1.78,WeatherDisplay:10.37,2013-05-20 03:33:00,
2013-05-19 23:38:00,67.2,66.3,30.08,ENE,70,0.0,0.0,97,0.00,CLR,,1.78,WeatherDisplay:10.37,2013-05-20 03:38:00,
2013-05-19 23:43:00,67.2,66.3,30.08,East,94,1.1,1.1,97,0.00,CLR,,1.78,WeatherDisplay:10.37,2013-05-20 03:43:00,
2013-05-19 23:48:00,67.2,66.3,30.08,ESE,120,3.5,3.5,97,0.00,CLR,,1.78,WeatherDisplay:10.37,2013-05-20 03:48:00,
2013-05-19 23:53:00,67.3,66.4,30.08,ESE,106,1.1,1.1,97,0.00,CLR,,1.78,WeatherDisplay:10.37,2013-05-20 03:53:00,
2013-05-19 23:58:00,67.2,66.3,30.08,SSE,163,3.5,3.5,97,0.00,CLR,,1.78,WeatherDisplay:10.37,2013-05-20 03:58:00,